User: anonymous   Login
Location: Possagno
(45.8500°N, 11.8667°E)
Time: 09:22:54
(UTC+00:00)
Language:

NOAA 15 - Orbit

View from above orbital plane
View from above orbital plane
View from above satellite
View from above satellite

Ground track
Ground track

The orbit data is extracted from the following two-line orbital elements,

1 25338U 98030A   21300.83498921  .00000060  00000-0  43705-4 0  9990
2 25338  98.6716 328.1099 0009376 253.4266 106.5884 14.26065741220119
Epoch (UTC): 27 October 2021 20:02:23
Eccentricity: 0.0009376
inclination: 98.6716°
perigee height: 798 km
apogee height: 811 km
right ascension of ascending node: 328.1099°
argument of perigee: 253.4266°
revolutions per day: 14.26065741
mean anomaly at epoch: 106.5884°
orbit number at epoch: 22011

The dashed part of the orbit path shows where the satellite is in the earth's shadow,  

DLR